#timestamp,LO_Frequency,Hit,StdDev 
1678194015.3,286046999.5,N
1678194035.1,286046998.7,N
1678194055.9,286046997.2,N
1678194075.7,286046997.3,N
1678194095.5,286046999.2,N
1678194115.4,286046999.5,N
1678194135.2,286046997.2,N
1678194155.1,286046999.5,N
1678194156.0,286046999.5,N
1678194175.8,286046999.0,N
1678194195.6,286046998.6,N
1678194215.5,286047011.9,Y
1678194235.3,286047000.5,P
1678194255.2,286047000.1,N
1678194275.9,286047002.0,P
1678194295.7,286046999.7,N
1678194315.6,286047001.1,N
1678194335.4,286047000.0,N
1678194355.2,286047002.7,Y
1678194375.1,286047002.8,P
1678194376.0,286047002.8,N
1678194395.8,286047002.4,N
1678194415.7,286047002.8,N
1678194435.5,286047000.2,N
1678194455.3,286047000.1,N
1678194475.2,286047000.3,N
1678194495.0,286047000.5,N
1678194495.9,286047000.5,N
1678194515.7,286047001.2,N
1678194535.6,286046998.1,N
1678194555.4,286047000.8,N
1678194575.3,286047000.1,N
1678194595.1,286047001.7,N
1678194596.0,286047001.7,N
1678194615.8,286047003.5,N
1678194635.7,286047003.6,N
1678194655.5,286047002.3,N
1678194675.3,286047001.6,N
1678194695.2,286047004.4,Y
1678194715.0,286047002.8,P
1678194715.9,286047002.8,P
1678194735.8,286047002.2,P
1678194755.6,286047002.5,Y
1678194775.4,286047001.1,P
1678194795.3,286047000.9,N
1678194815.1,286047000.6,N
1678194835.8,286047000.4,N
1678194855.7,286046998.4,N
1678194875.5,286046998.1,N
1678194895.4,286046998.6,N
1678194915.2,286046998.8,N
1678194935.0,286047001.0,N
1678194935.9,286047001.0,N
1678194955.8,286047000.4,N
1678194975.6,286047000.6,N
1678194995.4,286046999.8,N
1678195015.3,286046999.9,N
1678195035.1,286047000.4,N
1678195055.9,286046999.3,N
1678195075.7,286047001.1,N
1678195095.5,286046998.7,N
1678195115.4,286046998.6,N
1678195135.2,286047002.6,N
1678195155.0,286047000.6,N
1678195155.9,286047000.6,N
1678195175.8,286047000.0,N
1678195195.6,286047000.0,N
1678195215.4,286047002.4,N
1678195235.3,286047003.8,Y
1678195255.1,286047004.0,P
1678195275.9,286047004.4,N
1678195295.7,286047002.6,N
1678195315.5,286047002.8,N
1678195335.4,286047002.6,N
1678195355.2,286047002.1,N
1678195375.1,286047002.6,N
1678195376.0,286047002.6,N
1678195395.8,286047002.7,N
1678195415.6,286047002.1,N
1678195435.5,286047002.5,N
1678195455.3,286047002.6,N
1678195475.1,286047000.5,N
1678195495.9,286047002.4,N
1678195515.7,286047011.9,Y
1678195535.6,286046998.5,P
1678195555.4,286046999.4,N
1678195575.2,286046996.5,N
1678195595.1,286046996.8,N
1678195596.0,286046996.8,N
1678195615.8,286046998.0,N
1678195635.6,286046997.5,N
1678195655.5,286046995.3,N
1678195675.3,286046996.3,N
1678195695.2,286046996.4,N
1678195715.9,286046997.6,N
1678195735.7,286046997.5,N
1678195755.6,286046995.2,N
1678195775.4,286046997.9,N
1678195795.2,286046995.2,N
1678195815.1,286046995.7,N
1678195816.0,286046995.7,N
1678195835.8,286046996.0,N
1678195855.7,286046996.0,N
1678195875.5,286046994.6,Y
1678195895.3,286046997.8,P
1678195915.2,286046993.3,P
1678195935.0,286046995.2,N
1678195935.9,286046995.2,N
1678195955.7,286046995.6,N
1678195975.6,286046995.6,Y
1678195995.4,286046998.6,P
1678196015.3,286046998.8,N
1678196035.1,286046999.3,N
1678196036.0,286046999.3,N
1678196055.8,286046999.4,N
1678196075.7,286046998.4,N
1678196095.5,286046997.0,N
1678196115.3,286047000.8,N
1678196135.2,286046999.7,N
1678196155.0,286047000.0,N
1678196155.9,286047000.0,N
1678196175.8,286047000.1,N
1678196195.6,286047001.5,N
1678196215.4,286047003.9,N
1678196235.3,286047005.5,Y
1678196255.1,286047006.7,P
1678196275.8,286047008.6,N
1678196295.7,286047009.5,N
1678196315.5,286047009.3,N
1678196335.4,286047011.9,Y
1678196355.2,286047006.3,P
1678196375.0,286047009.2,P
1678196375.9,286047009.2,P
1678196395.8,286047009.1,Y
1678196415.6,286046999.4,P
1678196435.4,286046998.3,N
1678196455.3,286046999.4,N
1678196475.1,286046999.5,N
1678196495.9,286046999.5,N
1678196515.7,286046998.9,N
1678196535.5,286046999.5,N
1678196555.4,286046999.5,N
1678196575.2,286046997.1,N
1678196595.0,286046997.8,N
1678196595.9,286046997.8,N
1678196615.8,286046997.1,N
1678196635.6,286046997.2,N
1678196655.5,286046997.2,N
1678196675.3,286046997.5,N
1678196695.1,286046997.9,N
1678196715.9,286046998.0,N
1678196735.7,286046995.1,N
1678196755.6,286046995.8,N
1678196775.4,286046995.9,N
1678196795.2,286046994.6,N
1678196815.1,286046991.7,Y
1678196816.0,286046991.7,P
1678196835.8,286046993.9,N
1678196855.6,286046995.9,N
1678196875.5,286046996.4,N
1678196895.3,286046995.9,N
1678196915.2,286046995.2,N
1678196935.9,286046997.6,N
1678196955.7,286046995.3,N
1678196975.6,286046998.0,N
1678196995.4,286046995.1,N
1678197015.3,286046997.6,N
1678197035.1,286046997.5,N
1678197036.0,286046997.5,N
1678197055.8,286046995.4,N
1678197075.7,286046995.3,N
1678197095.5,286046995.5,N
1678197115.3,286046995.1,Y
1678197135.2,286047000.3,P
1678197155.0,286047000.9,N
1678197155.9,286047000.9,N
1678197175.8,286046999.5,N
1678197195.6,286046996.7,N
1678197215.4,286046997.1,N
1678197235.3,286046996.7,N
1678197255.1,286046996.8,N
1678197275.8,286046996.9,N
1678197295.7,286046996.5,N
1678197315.5,286046999.2,N
1678197335.4,286046997.4,N
1678197355.2,286046997.9,N
1678197375.0,286046996.5,N
1678197375.9,286046996.5,N
1678197395.8,286046997.2,N
1678197415.6,286046996.5,N
1678197435.5,286046998.6,N
1678197455.3,286047001.1,N
1678197475.1,286047000.9,N
1678197495.9,286046999.0,N
1678197515.7,286046999.3,N
1678197535.5,286047000.7,N
1678197555.4,286046998.2,N
1678197575.2,286047000.3,N
1678197595.1,286047000.9,N
1678197596.0,286047000.9,N
